Location: Gälforsberget
(66.6500°N, 22.4167°E)
Time: 22:52:36
(UTC+00:00)

Cosmos 1674 Rocket - Pass Details

Date: 11 April 2026
Orbit: 596 x 622 km, 82.5° (Epoch: 13 May)

Event Time Altitude Azimuth Distance (km) Brightness Sun altitude
Rises 19:32:00 0° 341° (NNW) 2,858 8.3 -8.1°
Reaches altitude 10° 19:34:13 10° 341° (NNW) 1,952 7.3 -8.3°
Maximum altitude 19:38:32 86° 254° (WSW) 610 3.5 -8.6°
Drops below altitude 10° 19:42:51 10° 165° (SSE) 1,947 5.6 -8.9°
Enters shadow 19:43:06 - 165° (SSE) 2,049 5.7 -8.9°
